Location: Lussas
(44.6119°N, 4.4726°E)
Time: 00:35:37
(UTC+00:00)

Daily predictions for brighter satellites

Satellite Brightness Start Highest point End
(mag) Time Altitude Azimuth Time Altitude Azimuth Time Altitude Azimuth
CENTAUR R/B 4.2 02:45:10 37° NE 02:45:12 37° NE 02:53:06 10° E
USA 238 DEB 4.3 03:18:27 56° ENE 03:18:27 56° ENE 03:25:19 10° SE
USA 238 4.3 03:18:30 55° ENE 03:18:30 55° ENE 03:25:24 10° SE
ALOS 4.0 03:36:48 10° NNE 03:47:06 - SSE 03:40:31 31° E
Lacrosse 5 4.4 03:43:42 12° SSE 03:46:27 17° ESE 03:49:44 10° E
Cosmos 2263 Rocket 3.3 03:46:18 28° SSE 03:48:37 41° ESE 03:53:56 10° NE
SJ 16-02 3.8 03:56:48 10° SSE 04:00:08 21° E 04:03:28 10° NE
ATLAS 3B R/B 4.2 03:59:43 21° N 04:02:55 30° NE 04:09:00 10° E
Cosmos 1603 4.0 04:08:23 48° N 04:09:40 61° ENE 04:15:13 10° SE
COSMO-SKYMED 1 4.3 04:07:22 10° SE 04:11:10 31° ENE 04:13:49 17° NNE
FENGYUN 3A 3.9 04:07:45 10° NNE 04:13:11 68° ESE 04:18:33 10° S
Cosmos 1386 Rocket 4.4 04:09:49 10° S 04:16:14 81° W 04:22:37 10° N
BREEZE-M DEB (TANK) 4.4 04:16:40 49° WSW 04:19:16 87° NNW 04:51:11 10° ENE
Cosmos 1943 3.5 04:17:13 39° N 04:19:17 64° ENE 04:24:55 10° SE
ADEOS 3.8 04:15:41 10° NNE 04:20:55 70° ESE 04:26:07 10° S
Cosmos 1933 4.3 04:21:48 38° NE 04:22:44 46° ENE 04:26:40 10° SSE
Cosmos 1777 Rocket 3.8 04:23:32 78° NNW 04:23:32 78° NNW 04:28:30 10° NNE
NOSS 3-2 (C) 4.0 04:20:32 40° NW 04:23:51 89° SW 04:32:27 10° SE
NOSS 3-4 (A) 3.8 04:19:51 18° SSW 04:24:14 58° ESE 04:30:20 10° NE
NOSS 3-4 (C) 3.9 04:19:51 17° SSW 04:24:21 58° ESE 04:30:27 10° NE
ATLAS CENTAUR R/B 3.9 04:23:42 11° NNE 04:24:34 12° NE 04:25:56 10° NE
Nadezhda 1 Rocket 4.0 04:28:56 54° WNW 04:29:52 59° W 04:36:00 10° S
SL-4 R/B 3.0 04:33:39 37° NNE 04:33:39 37° NNE 04:36:11 10° NE
Meteor 1-4 Rocket 4.1 04:31:52 26° NE 04:32:57 32° ENE 04:36:05 10° SE
Cosmos 2084 3.5 04:33:10 83° SSE 04:33:10 83° SSE 04:37:30 10° SE
Meteor 1-31 Rocket 3.1 04:31:52 10° NNE 04:39:47 - S 04:35:13 61° NE
Cosmos 1538 Rocket 3.9 04:35:15 51° NNW 04:36:36 81° WSW 04:41:52 10° SSE
CENTAUR R/B 3.1 04:32:23 33° NW 04:36:44 79° SW 04:45:37 10° SSE
Cosmos 2227 Rocket 4.2 04:40:17 13° NNW 04:40:17 13° NNW 04:41:22 10° N
Cosmos 2227 4.0 04:36:03 30° SSW 04:38:56 80° WNW 04:44:36 10° NNE
ARGOS Delta rocket 3.9 04:37:52 10° N 04:43:01 62° WNW 04:47:51 10° SSW
ATLAS 2AS CENTAUR R/B 3.3 04:36:00 10° SSW 04:43:50 68° ESE 04:51:40 10° NE
deb Chang Zheng 4 3.5 04:42:22 10° NNE 04:46:44 89° ESE 04:51:05 10° SSW
Cosmos 489 Rocket 4.4 04:45:09 32° NW 04:48:03 62° WSW 04:54:16 10° S
NOSS 3-2 (A) 4.4 04:50:27 34° WNW 04:53:08 45° WSW 05:01:06 10° S
Cosmos 1633 2.3 04:52:05 10° S 04:55:36 82° W 04:59:09 10° N
Gbstr 26 Del rocket 3.4 04:56:52 36° N 04:57:31 40° NNE 05:01:12 10° E
USA 307 4.2 04:57:31 25° NNW 04:57:38 26° N 05:01:17 10° NE
SKYMED 2 3.4 04:54:46 10° SSE 04:59:05 85° WSW 05:02:27 17° NNW
Lacrosse 4 Rocket 1.5 04:58:45 32° NNW 05:00:44 77° ENE 05:05:07 10° SSE
Cosmos 1184 Rocket 2.6 04:59:23 10° S 05:02:40 84° W 05:05:58 10° N
SAR-Lupe-4 3.4 04:59:42 10° S 05:03:15 69° WSW 05:03:59 51° NW
USA 308 4.2 05:03:29 24° NNW 05:03:55 25° N 05:07:31 10° NE
METEOR-M 4.1 04:58:58 10° N 05:04:12 56° WNW 05:09:24 10° SSW
Meteor 2-17 Rocket 4.4 05:01:56 10° S 05:07:58 84° E 05:14:03 10° N
Cosmos 1844 Rocket 4.2 05:03:15 10° S 05:08:25 39° ESE 05:13:38 10° NE
USA 238 DEB 4.4 05:05:56 28° WNW 05:08:44 38° WSW 05:15:33 10° S
USA 238 4.4 05:06:00 28° WNW 05:08:50 38° WSW 05:15:40 10° S
Cosmos 1461 3.3 05:09:38 36° WNW 05:11:10 52° WSW 05:15:34 10° SSE
BREEZE-M DEB (TANK) 4.1 05:08:15 10° SSW 05:11:21 44° SE 05:19:48 10° ENE
Envisat 4.5 05:06:44 10° NNE 05:11:30 40° E 05:16:15 10° SSE
CZ-4B R/B 3.0 05:09:15 10° N 05:13:47 78° WNW 05:18:12 10° SSW
Meteor 1-26 Rocket 4.2 05:08:41 10° NNW 05:14:31 73° W 05:20:07 10° S
Cosmos 1151 Rocket 3.0 05:12:35 17° NNW 05:15:40 56° W 05:19:51 10° S
Cosmos 1689 Rocket 1.9 05:13:18 10° S 05:16:08 63° W 05:16:26 57° WNW
Okean O Rocket 4.4 05:13:05 10° NE 05:16:29 21° E 05:19:52 10° SE
ALOS 3.0 05:14:16 10° N 05:18:19 30° WNW 05:18:59 28° W
SAR-Lupe-1 4.3 05:16:57 10° S 05:20:22 44° W 05:21:35 31° NW
H-2A R/B 3.0 05:17:21 10° NNE 05:21:17 71° ESE 05:25:09 10° S
BREEZE-M DEB (TANK) 3.4 05:16:31 22° WNW 05:21:33 88° SSW 05:24:37 10° ESE
CZ-4C R/B 2.4 05:18:15 10° SSW 05:23:04 67° ESE 05:28:50 10° NE
Cosmos 1500 Rocket 4.4 05:18:55 10° S 05:23:06 53° E 05:27:19 10° NNE
CRYOSAT 2 4.5 05:19:36 10° SSW 05:24:20 52° W 05:29:05 10° NNW
ERS-2 3.9 05:21:54 10° SSW 05:23:14 17° SW 05:23:14 17° SW
ERBS 3.7 05:25:08 22° NNW 05:25:08 22° NNW 05:27:40 10° NNE
Cosmos 1328 Rocket 3.7 05:22:03 10° NNW 05:26:20 50° W 05:30:36 10° SSW
BREEZE-M DEB (TANK) 2.4 05:25:50 29° WSW 05:27:08 87° SSE 05:31:18 10° ENE
Cosmos 2181 Rocket 4.0 05:21:06 10° NNW 05:27:10 56° W 05:33:07 10° SSW
Lacrosse 5 1.8 05:23:44 10° SW 05:28:49 88° NW 05:33:55 10° NE
Cosmos 2263 Rocket 2.8 05:28:09 13° WSW 05:32:38 34° NW 05:37:47 10° N
PSLV R/B 4.2 05:30:19 10° S 05:34:19 46° W 05:38:18 10° NNW
USA 305 4.4 05:32:40 17° NW 05:34:35 23° N 05:38:03 10° NE
Meteor PRIRODA 3.9 05:32:14 10° N 05:35:49 44° WNW 05:39:22 10° SW
Meteor 2-3 Rocket 4.0 05:32:32 10° SW 05:37:59 45° WNW 05:43:31 10° N
SJ 16-02 1.8 05:34:18 10° SW 05:38:26 39° WNW 05:42:37 10° N
Cosmos 2154 Rocket 4.4 05:33:23 10° S 05:39:31 68° E 05:45:44 10° NNE
Okean 3 Rocket 4.4 05:36:07 10° SW 05:39:51 27° WNW 05:43:38 10° NNW
FALCON 9 DEB 3.1 05:37:22 10° SW 05:40:32 70° SE 05:43:46 10° ENE
BREEZE-M DEB 3.8 05:31:43 16° WNW 05:40:34 89° SSW 05:43:59 10° ESE
Cosmos 1766 Rocket 4.4 05:37:40 10° SW 05:41:32 28° WNW 05:45:26 10° NNW
Cosmos 1862 3.6 05:38:02 10° S 05:42:04 73° E 05:46:08 10° NNE
Cosmos 923 Rocket 4.3 05:37:06 10° NNW 05:42:12 49° WSW 05:47:17 10° S
ASTRO F (AKARI) 4.2 05:39:27 10° N 05:42:29 55° WNW 05:45:32 10° SSW
USA 306 4.5 05:40:35 15° NW 05:42:55 23° N 05:46:22 10° NE
Cosmos 1743 Rocket 3.5 05:41:25 10° S 05:45:51 85° W 05:50:21 10° N
COSMO-SKYMED 1 3.6 05:43:39 10° SSW 05:47:19 26° W 05:51:00 10° NW
CZ-4B R/B 4.3 05:43:18 10° NNE 05:48:28 48° E 05:53:41 10° S
Cosmos 1408 Rocket 4.0 05:46:10 10° SSW 05:50:22 40° WNW 05:54:35 10° N
CZ-2C R/B 3.5 05:45:17 10° SE 05:50:37 53° ENE 05:55:52 10° N
Cosmos 990 Rocket 4.0 05:48:03 10° SSW 05:53:14 61° WNW 05:58:28 10° NNE
ATLAS 3B R/B 2.8 05:47:23 10° NW 05:54:21 83° SW 06:01:35 10° SSE
COSMOS 2455 4.2 05:51:04 10° S 05:56:45 45° ESE 06:02:27 10° NE
Spot 2 4.5 05:52:26 10° N 05:57:34 69° WNW 06:02:37 10° SSW
EO 1 Delta rocket 4.2 05:53:49 10° S 05:58:59 50° W 06:03:33 10° NNW
PSLV R/B 3.9 05:55:20 10° N 05:59:09 52° WNW 06:02:50 10° SSW
ATLAS 5 CENTAUR R/B 3.9 06:01:57 11° NW 06:02:53 11° NW 06:04:05 10° NNW
Cosmos 2327 Rocket 4.4 05:57:19 10° SSW 06:03:27 78° W 06:09:34 10° N
ATLAS CENTAUR R/B 1.3 06:00:18 10° NNW 06:04:04 75° NE 06:08:00 10° SE
Cosmos 2074 Rocket 4.1 05:58:23 10° SSW 06:04:24 52° WNW 06:10:28 10° N
MOS 1 Rocket 3.6 06:00:33 10° S 06:05:04 47° W 06:09:55 10° NNW
Cosmos 1805 Rocket 3.8 06:01:14 10° S 06:05:39 78° E 06:10:07 10° N
Meteor 1-4 Rocket 4.2 06:06:06 11° WNW 06:07:39 14° W 06:09:31 10° WSW
FALCON 9 DEB 2.9 06:07:09 10° WSW 06:10:21 69° NNW 06:13:33 10° NE
NOAA 6 4.0 06:05:41 10° N 06:10:46 66° WNW 06:15:49 10° SSW
Cosmos 1680 Rocket 4.2 06:06:22 10° NW 06:11:13 36° WSW 06:16:01 10° SSW
Cosmos 1782 4.1 06:08:53 10° NW 06:11:56 21° W 06:14:58 10° SW
SL-4 R/B 3.0 06:09:15 10° WNW 06:12:35 27° N 06:15:45 10° ENE
SMAP 3.1 06:08:04 10° NNE 06:12:46 89° ESE 06:17:25 10° SSW
FALCON 9 DEB 3.0 06:09:46 10° WSW 06:12:57 62° NNW 06:16:08 10° NE
RESURS DK-1 2.6 06:10:18 10° SW 06:14:20 48° WNW 06:18:23 10° NNE
H-2A R/B 2.4 06:10:48 10° N 06:14:35 52° WNW 06:18:17 10° SSW
NOSS 3-4 (A) 4.1 06:10:06 10° W 06:15:28 33° NW 06:21:14 10° NNE
NOSS 3-4 (C) 4.1 06:10:12 10° W 06:15:35 33° NW 06:21:22 10° NNE
Cosmos 2184 Rocket 4.4 06:12:36 10° SW 06:18:32 43° WNW 06:24:35 10° N
Genesis I 3.2 06:15:53 10° SW 06:19:38 57° NW 06:23:27 10° NNE
Cosmos 2228 Rocket 3.4 06:17:00 10° NNW 06:21:16 47° W 06:25:28 10° SSW
Cosmos 405 Rocket 3.0 06:18:16 10° SSW 06:21:47 42° WNW 06:25:21 10° N
Cosmos 1295 Rocket 4.4 06:16:48 10° SSW 06:22:52 71° W 06:28:58 10° N
USA 234 3.3 06:17:34 10° NE 06:24:05 70° NNW 06:30:34 10° WSW
CENTAUR R/B 4.5 06:20:53 10° WNW 06:26:38 20° WSW 06:32:35 10° SSW
